EW2849 Weather Reports


Display with metric or nautical units.
time (UTC)temp
F
wind
direction
speed
MPH
gust
MPH
rain 1hr
in
rain 24hr
in
rain mn
in
humidity
%
barometer
mb
20260831231609 63 257 4.0 6.0 0.00 0.00 0.00 96 1015.6
20260831230408 63 264 5.0 5.0 0.00 0.00 0.00 96 1015.6
20260831225207 63 270 8.0 11.0 0.00 0.00 0.00 95 1015.6
20260831224006 63 256 9.0 11.0 0.00 0.00 0.00 95 1015.6
20260831222805 63 258 8.0 10.0 0.00 0.00 0.00 95 1015.6
20260831221624 64 252 10.0 14.0 0.00 0.00 0.00 94 1015.6
20260831220403 64 270 6.0 11.0 0.00 0.00 0.00 94 1015.6
20260831215220 64 270 6.0 7.0 0.00 0.00 0.00 93 1015.6
20260831213959 64 270 9.0 10.0 0.00 0.00 0.00 93 1015.6
20260831212758 64 256 7.0 12.0 0.00 0.00 0.00 92 1015.6
20260831211557 64 264 8.0 14.0 0.00 0.00 0.00 92 1015.6
20260831210356 64 248 9.0 11.0 0.00 0.00 0.00 91 1015.6
20260831205155 65 248 7.0 9.0 0.00 0.00 0.00 91 1015.6
20260831203954 65 264 8.0 11.0 0.00 0.00 0.00 90 1015.6
20260831202753 65 255 7.0 10.0 0.00 0.00 0.00 89 1015.6
20260831201552 66 261 6.0 9.0 0.00 0.00 0.00 89 1015.6
20260831200411 66 270 7.0 8.0 0.00 0.00 0.00 88 1015.6
20260831195150 66 270 6.0 8.0 0.00 0.00 0.00 87 1015.6
20260831193949 66 270 7.0 11.0 0.00 0.00 0.00 86 1015.6
20260831192808 66 256 6.0 11.0 0.00 0.00 0.00 85 1015.6
20260831191547 66 270 3.0 3.0 0.00 0.00 0.00 84 1015.6
20260831190345 66 265 8.0 11.0 0.00 0.00 0.00 84 1015.6
20260831185144 66 248 4.0 5.0 0.00 0.00 0.00 83 1015.6
20260831183943 66 270 8.0 11.0 0.00 0.00 0.00 82 1015.6
20260831182742 67 270 4.0 7.0 0.00 0.00 0.00 81 1015.6
20260831181541 67 270 5.0 7.0 0.00 0.00 0.00 80 1012.2
20260831180340 68 270 5.0 7.0 0.00 0.00 0.00 78 1012.2
20260831175139 68 270 7.0 12.0 0.00 0.00 0.00 77 1012.2
20260831173938 68 270 7.0 8.0 0.00 0.00 0.00 76 1012.2
20260831172737 69 293 8.0 15.0 0.00 0.00 0.00 75 1012.2
20260831171535 69 293 11.0 15.0 0.00 0.00 0.00 74 1012.2
20260831170334 69 270 11.0 15.0 0.00 0.00 0.00 74 1012.2
20260831165153 69 285 9.0 15.0 0.00 0.00 0.00 75 1012.2
20260831163932 69 293 10.0 16.0 0.00 0.00 0.00 74 1012.2
20260831162731 69 293 10.0 13.0 0.00 0.00 0.00 73 1012.2
20260831161530 70 293 10.0 16.0 0.00 0.00 0.00 73 1012.2
20260831160329 70 310 13.0 15.0 0.00 0.00 0.00 73 1012.2
20260831155128 70 293 12.0 20.0 0.00 0.00 0.00 73 1012.2
20260831153947 69 293 12.0 17.0 0.00 0.00 0.00 74 1012.2
20260831152725 70 293 8.0 11.0 0.00 0.00 0.00 74 1012.2
20260831151544 71 285 13.0 15.0 0.00 0.00 0.00 75 1012.2
20260831150324 71 293 17.0 22.0 0.00 0.00 0.00 74 1012.2
20260831145142 71 279 10.0 14.0 0.00 0.00 0.00 74 1012.2
20260831143921 71 293 15.0 17.0 0.00 0.00 0.00 74 1012.2
20260831142720 71 293 10.0 13.0 0.00 0.00 0.00 74 1012.2
20260831141539 72 275 10.0 13.0 0.00 0.00 0.00 75 1012.2
20260831140318 72 270 10.0 13.0 0.00 0.00 0.00 79 1012.2
20260831135117 70 276 10.0 17.0 0.00 0.00 0.00 80 1010.5
20260831133916 70 287 13.0 17.0 0.00 0.00 0.00 81 1012.2
20260831132834 69 270 11.0 15.0 0.00 0.00 0.00 83 1012.2
20260831131614 69 286 11.0 15.0 0.00 0.00 0.00 86 1008.9
20260831130413 68 315 12.0 16.0 0.00 0.00 0.00 88 1008.9
20260831125211 69 270 7.0 11.0 0.00 0.00 0.00 94 1008.9
20260831124010 68 270 5.0 7.0 0.00 0.00 0.00 95 1008.9
20260831122809 65 282 9.0 15.0 0.00 0.00 0.00 94 1008.9
20260831121608 63 253 10.0 13.0 0.00 0.00 0.00 92 1008.8
20260831120407 65 242 14.0 15.0 0.00 0.00 0.00 90 1008.9
20260831115206 68 248 14.0 18.0 0.00 0.00 0.00 87 1008.9
20260831114024 69 225 20.0 24.0 0.00 0.00 0.00 87 1008.9
20260831112803 68 244 17.0 21.0 0.00 0.00 0.00 91 1008.9
20260831111602 68 225 15.0 22.0 0.00 0.00 0.00 93 1008.9
20260831110401 67 235 11.0 16.0 0.00 0.00 0.00 96 1008.9
20260831105159 65 225 17.0 23.0 0.00 0.00 0.00 97 1008.9
20260831103958 65 248 7.0 11.0 0.00 0.00 0.00 97 1008.9
20260831102757 65 252 9.0 13.0 0.00 0.00 0.00 97 1008.9
20260831101556 66 241 12.0 13.0 0.00 0.00 0.00 97 1008.9
20260831100355 65 258 9.0 17.0 0.00 0.00 0.00 98 1008.9
20260831095213 64 252 13.0 19.0 0.00 0.00 0.00 98 1008.9
20260831093953 64 257 7.0 9.0 0.00 0.00 0.00 98 1008.9
20260831092751 63 248 7.0 11.0 0.00 0.00 0.00 97 1008.9
20260831091549 63 225 12.0 13.0 0.00 0.00 0.00 97 1008.9
20260831090409 64 225 9.0 15.0 0.00 0.00 0.00 96 1008.9
20260831085147 65 225 15.0 19.0 0.00 0.00 0.00 95 1008.9
20260831083947 65 248 17.0 20.0 0.00 0.00 0.00 93 1008.9
20260831082745 66 225 16.0 19.0 0.00 0.00 0.00 92 1008.9
20260831081544 66 225 17.0 23.0 0.00 0.00 0.00 93 1008.9
20260831080503 65 238 17.0 22.0 0.00 0.00 0.00 95 1008.9
20260831075142 64 238 13.0 19.0 0.00 0.00 0.00 97 1008.9
20260831073940 63 264 13.0 20.0 0.00 0.00 0.00 97 1008.9
20260831072738 63 225 16.0 23.0 0.00 0.00 0.00 97 1008.9
20260831071537 63 235 10.0 14.0 0.00 0.00 0.00 97 1008.9
20260831070336 63 238 15.0 20.0 0.00 0.00 0.00 96 1008.9
20260831065155 63 237 13.0 16.0 0.00 0.00 0.00 95 1008.9
20260831063934 63 248 11.0 14.0 0.00 0.00 0.00 93 1008.9
20260831062733 64 248 12.0 18.0 0.00 0.00 0.00 92 1008.9
20260831061552 64 248 14.0 16.0 0.00 0.00 0.00 92 1008.9
20260831060330 64 225 11.0 18.0 0.00 0.00 0.00 93 1008.9
20260831055129 63 236 13.0 17.0 0.00 0.00 0.00 93 1008.9
20260831053928 63 225 13.0 21.0 0.00 0.00 0.00 94 1008.9
20260831052727 62 248 9.0 13.0 0.00 0.00 0.00 94 1008.9
20260831051526 62 248 10.0 17.0 0.00 0.00 0.00 95 1008.9
20260831050324 62 236 10.0 13.0 0.00 0.00 0.00 95 1008.9
20260831045123 62 270 14.0 15.0 0.00 0.00 0.00 95 1008.9
20260831043922 62 225 9.0 14.0 0.00 0.00 0.00 95 1008.9
20260831042721 63 236 7.0 10.0 0.00 0.00 0.00 95 1008.9
20260831041540 63 248 10.0 13.0 0.00 0.00 0.00 95 1008.9
20260831040340 62 248 10.0 13.0 0.00 0.00 0.00 96 1008.9
20260831035139 62 225 9.0 13.0 0.00 0.00 0.00 96 1008.9
20260831033917 62 248 11.0 12.0 0.00 0.00 0.00 96 1008.9
20260831032716 63 225 7.0 9.0 0.00 0.00 0.00 95 1008.9
20260831031515 63 237 10.0 15.0 0.00 0.00 0.00 95 1008.9
20260831030414 63 248 13.0 17.0 0.00 0.00 0.00 95 1008.9
20260831025213 63 248 10.0 15.0 0.00 0.00 0.00 95 1008.9
20260831024012 63 243 12.0 14.0 0.00 0.00 0.00 95 1008.9
20260831022810 63 244 11.0 13.0 0.00 0.00 0.00 96 1008.9
20260831021610 63 225 11.0 15.0 0.00 0.00 0.00 96 1008.9
20260831020428 63 225 9.0 12.0 0.00 0.00 0.00 96 1008.9
20260831015207 63 231 9.0 13.0 0.00 0.00 0.00 96 1008.9
20260831014006 63 243 9.0 9.0 0.00 0.00 0.00 96 1008.9
20260831012805 63 248 6.0 7.0 0.00 0.00 0.00 96 1008.9
20260831011604 63 225 6.0 11.0 0.00 0.00 0.00 96 1008.9
20260831010403 64 225 8.0 9.0 0.00 0.00 0.00 96 1008.9
20260831005202 64 225 8.0 11.0 0.00 0.00 0.00 95 1008.9
20260831004001 64 230 6.0 7.0 0.00 0.00 0.00 95 1008.9
20260831002800 65 225 7.0 7.0 0.00 0.00 0.00 95 1008.9
20260831001559 64 233 6.0 11.0 0.00 0.00 0.00 94 1008.9
20260831000358 65 225 5.0 6.0 0.00 0.00 0.00 94 1008.9
20260830235157 65 225 3.0 5.0 0.00 0.00 0.00 93 1008.9
20260830233956 64 220 1.0 3.0 0.00 0.00 0.00 93 1008.9
20260830232755 64 225 2.0 6.0 0.00 0.00 0.00 92 1008.9